Location: Borovka
(49.7741°N, 14.5280°E)
Time: 09:33:49
(UTC+00:00)

Thor Agena Rocket - Visible Passes

Search period start: 12 February 2026 00:00
Search period end: 22 February 2026 00:00
Orbit: 755 x 802 km, 99.1° (Epoch: 11 February)

Date Brightness Start Highest point End Pass type
(mag) Time Alt. Az. Time Alt. Az. Time Alt. Az.
12 Feb 5.0 05:11:18 10° NNE 05:16:19 43° E 05:21:19 10° S visible
12 Feb 6.9 18:15:03 10° WSW 18:17:07 12° W 18:19:12 10° WNW visible
13 Feb 6.1 04:38:55 10° NE 04:43:08 24° E 04:47:20 10° SE visible
13 Feb 6.1 17:39:42 10° SW 17:43:44 23° W 17:47:50 10° NW visible
14 Feb 7.0 04:07:28 10° ENE 04:09:46 13° E 04:12:03 10° ESE visible
14 Feb 5.0 17:05:41 10° S 17:10:32 43° W 17:15:28 10° NNW visible
15 Feb 5.0 05:11:44 10° NNE 05:16:45 43° E 05:21:45 10° S visible
15 Feb 7.0 18:15:23 10° WSW 18:17:31 12° W 18:19:41 10° WNW visible
16 Feb 6.2 04:39:21 10° NE 04:43:33 24° E 04:47:45 10° SE visible
16 Feb 6.2 17:40:04 10° SW 17:44:09 24° W 17:48:17 10° NW visible
17 Feb 7.0 04:07:56 10° ENE 04:10:11 13° E 04:12:26 10° ESE visible
17 Feb 5.0 17:06:04 10° S 17:10:56 43° W 17:15:54 10° NNW visible
18 Feb 5.1 05:12:09 10° NNE 05:17:11 43° E 05:22:10 10° S visible
18 Feb 7.0 18:15:42 10° WSW 18:17:55 13° W 18:20:10 10° WNW visible
19 Feb 6.2 04:39:46 10° NE 04:43:58 24° E 04:48:09 10° SE visible
19 Feb 6.2 17:40:27 10° SW 17:44:33 24° W 17:48:43 10° NW visible
20 Feb 7.0 04:08:22 10° ENE 04:10:36 13° E 04:12:48 10° ESE visible
20 Feb 5.0 17:06:27 10° S 17:11:20 44° W 17:16:19 10° NNW visible
21 Feb 5.1 05:12:34 10° NNE 05:17:35 42° E 05:22:34 10° S visible
21 Feb 7.0 18:16:02 10° WSW 18:18:19 13° W 18:20:38 10° WNW visible
